COSMOS 2236 (GLONASS)

Satellite information

Favourite Embed

Satellite Type and Status

PAYLOADIN ORBIT

Key statistics

Satellite COSMOS 2236 (GLONASS) at a glance.

Uptime

11830

Days in orbit

Revolutions

≈ 2.1

Per day

Orbit

MEO

Medium Earth Orbit

Inclination

64.7

Latest

Satellite identification and parameters

Extended collection of information and parameters for COSMOS 2236 (GLONASS).

Object identification

Identified? True

Debris? False

Object name: COSMOS 2236 (GLONASS)

International designator: 1993-010B

Object number (NORAD): 22513

Object ID (CCSDS): 22513

Country: COMMONWEALTH OF INDEPENDENT STATES (CIS)

Current information (Y/N): Y

RCS size: LARGE

Orbital parameters

Period: 675.724 minutes

Inclination: 64.6897 deg

SMA: 25507.815 km

Apoapsis: 19142.628 km

Periapsis: 19116.732 km

RAAN: 81.8674 deg

Eccentricy: 0.0005076

Argument of periapsis: 76.0457 deg

Mean anomaly: 104.9654 deg

Mean motion: 2.13104623 rev/day

Mean motion (dot): -0.00000051 rev/day2

B* drag term: 0.0 1/REarth

Two-line elements (TLE)

Creation date: July 6, 2025, 4:10 a.m.

Reference frame: TEME

Reference center: EARTH

Epoch: July 5, 2025, 6:04 p.m. UTC

TLE line 0: 0 COSMOS 2236 (GLONASS)

TLE line 1: 1 22513U 93010B 25186.75335067 -.00000051 00000-0 00000-0 0 9991

TLE line 2: 2 22513 64.6897 81.8674 0005076 76.0457 104.9654 2.13104623251993

Live tracking on map

Real-time ground track for satellite COSMOS 2236 (GLONASS).

In-orbit conjunctions

A list of the most updated potential collisions computed for object COSMOS 2236 (GLONASS).

Target Orbit TCA Probability of collision Miss distance Type
SL-12 R/B(2) MEO 2025-05-23 21:18:08 TBA 1212.0 (m) ROCKET BODY

Associated space launch

GLONASS navigation satellites

COSMOS 2236 (GLONASS) was lifted into orbit during the mission ‘Proton | Uragan 51 to 53’, on board a Proton space rocket.

The launch took place on Feb. 17, 1993, 8:09 p.m. from 81/23 (81L).

For more information about the launch, click the button.

Launch to space Proton | Uragan 51 to 53
Proton | Uragan 51 to 53

Agency: N/A

Status: Launch Successful

Launch date: Feb. 17, 1993, 8:09 p.m. UTC

Rocket: Proton

Launch pad: 81/23 (81L)

Location: Baikonur Cosmodrome, Republic of Kazakhstan

...

Latest news about this satellite

There are no fresh news available about this satellite. Check back as we update our databases every day.


Newsletter sign-up

Weekly statistics, charts and insights to help you stay on top of the space industry.